Theta_e
299 294 295 295 295 295 293 292 291 293 296 294 293 293 292 293 290 290 290 289 290 291 295 296 294 295 295 297 296 297 299 302 306 307 310 313 314 320 320 321 321 321 320 322
295 290 295 295 294 294 293 290 290 293 295 291 291 289 290 291 287 288 289 288 289 290 293 293 293 293 294 296 295 296 298 300 305 306 307 309 311 315 320 321 320 320 319 319
290 291 294 293 293 291 291 289 290 288 290 292 289 287 288 289 288 288 288 289 289 289 289 291 290 291 293 294 294 295 296 299 303 303 303 304 307 310 313 318 318 318 319 317
290 294 293 292 291 290 287 291 289 286 285 282 288 279 287 288 286 285 286 287 287 288 288 289 289 290 292 293 295 294 295 298 302 303 299 297 299 302 306 310 318 318 317 318
289 290 290 290 289 291 290 289 287 286 285 284 284 281 286 290 283 282 285 286 287 287 288 288 289 290 291 294 294 294 294 297 299 301 299 297 296 299 304 306 312 316 316 317
290 293 292 292 291 290 288 287 287 286 285 279 281 278 281 282 279 282 285 286 286 286 287 288 289 290 291 293 293 295 293 293 296 297 299 296 296 297 299 302 305 314 315 315
289 289 290 290 287 289 286 284 278 277 279 278 281 277 280 281 282 283 283 284 285 286 286 287 287 289 290 291 291 292 291 291 292 293 296 297 296 296 297 301 303 306 313 313
284 281 288 289 286 283 284 284 277 270 273 275 279 274 280 283 284 285 285 284 285 285 286 286 288 289 289 290 291 291 291 291 292 292 294 297 296 296 297 298 301 305 304 314
282 281 285 284 286 285 284 280 282 275 274 272 276 279 283 283 283 283 283 283 283 283 285 286 287 288 288 289 290 290 290 291 292 292 293 296 296 295 295 296 297 297 304 306
284 279 283 283 284 283 281 283 276 277 268 267 274 275 276 278 279 281 280 281 282 284 285 286 286 287 288 289 289 289 289 289 291 292 293 295 296 296 295 294 295 295 298 303
283 281 279 280 279 279 278 276 276 275 274 268 267 273 280 279 280 279 280 281 282 284 285 285 286 287 287 287 286 286 286 287 289 291 292 293 295 296 295 295 295 295 296 294
281 279 275 277 279 280 279 278 276 271 269 272 271 270 282 281 281 281 280 281 283 284 284 284 284 284 282 280 279 278 279 280 282 284 286 292 293 295 295 295 294 295 294 294
281 277 274 272 276 278 276 276 276 276 274 269 267 271 282 282 280 280 280 281 283 283 282 282 283 280 277 275 275 275 275 276 278 279 282 285 289 292 292 293 295 294 292 292
282 277 276 274 276 276 273 275 276 275 270 270 271 273 277 278 278 279 280 281 281 281 281 281 279 276 275 274 273 273 273 274 276 277 278 280 282 287 289 292 294 293 292 291
280 274 276 276 277 276 275 274 275 273 273 269 272 272 276 277 277 279 280 280 279 279 279 277 275 274 273 272 272 272 273 274 275 275 276 277 279 280 282 286 291 292 291 290
280 274 274 272 275 275 273 274 275 275 274 274 274 273 279 279 280 279 279 277 278 277 276 275 274 272 272 271 271 271 272 273 275 274 275 276 276 277 279 285 287 290 290 289
276 274 271 272 272 271 269 273 274 274 275 274 270 274 278 277 278 278 277 278 276 274 274 273 271 271 271 270 270 271 271 272 271 274 275 274 275 276 278 279 287 289 288 289
276 274 273 269 268 265 274 277 276 274 275 276 276 277 278 278 279 278 280 277 274 273 272 272 270 270 270 270 270 270 270 270 271 274 275 275 275 275 277 279 284 287 287 288
279 275 271 268 266 271 273 274 274 272 272 277 276 277 279 279 276 278 280 276 273 272 272 271 271 271 270 269 269 267 268 268 269 270 274 275 275 274 276 278 280 285 286 288
278 278 273 266 265 265 272 275 278 276 268 277 278 277 277 275 272 275 276 273 272 272 272 270 271 270 269 268 268 267 266 266 267 269 270 273 276 275 275 277 281 283 286 287
272 272 269 269 267 270 276 277 278 267 271 279 279 278 275 272 274 274 273 272 271 270 270 270 269 268 268 268 267 266 265 265 267 268 270 271 273 276 276 278 281 282 285 288
271 269 268 270 267 264 278 276 272 277 280 280 278 276 273 272 272 272 270 269 268 268 268 268 267 266 267 267 266 264 264 266 267 267 267 267 269 276 279 279 282 284 286 287
270 274 270 272 272 278 279 279 281 281 279 278 275 274 271 270 270 269 267 267 266 266 266 267 265 264 265 265 265 262 264 266 265 263 264 266 269 273 280 280 283 286 286 287
276 278 274 273 276 277 279 280 281 279 278 275 273 271 269 268 267 265 266 265 265 265 265 264 263 262 262 263 264 263 264 264 262 263 266 270 271 274 279 284 286 286 287 287
277 277 276 276 278 279 280 281 282 277 274 272 271 269 268 266 265 264 263 263 263 263 263 263 261 260 260 262 261 262 262 261 262 265 269 271 274 276 278 284 287 287 288 289
278 276 274 274 279 279 280 280 278 275 273 271 267 266 266 265 264 263 262 263 262 261 261 260 260 259 259 260 260 261 260 260 262 265 267 268 273 280 280 284 286 289 289 290
Wind_Speed
5 6 3 5 6 7 8 12 20 19 17 11 13 17 19 10 11 12 13 15 16 16 13 17 20 20 22 20 23 24 21 21 17 13 12 12 10 11 10 9 15 15 13 15
5 6 2 4 4 6 11 16 18 11 5 13 19 16 6 12 13 12 11 17 18 18 17 19 24 24 22 20 23 22 21 19 15 13 13 11 12 13 12 11 13 14 15 16
4 4 3 2 7 8 13 10 11 15 17 16 15 11 4 13 9 12 12 15 18 21 21 22 24 25 20 19 21 21 23 21 16 15 11 13 15 12 12 10 10 12 15 16
7 2 1 5 6 3 10 7 12 18 20 15 16 10 5 13 6 12 13 16 19 23 25 24 26 26 24 20 19 22 21 21 16 17 11 12 12 16 14 13 11 13 17 19
1 2 3 4 4 2 4 11 13 20 22 14 3 7 3 11 8 15 16 17 21 26 27 27 27 25 26 20 21 20 22 21 20 18 15 9 10 12 14 14 17 16 15 17
2 1 2 2 2 3 8 9 21 9 6 6 10 5 8 6 5 11 16 21 26 29 28 27 27 26 23 21 21 19 21 22 20 20 21 16 13 13 14 17 14 12 12 13
1 2 1 2 3 2 8 10 8 6 3 7 8 10 8 9 7 12 18 24 29 28 25 26 28 25 24 25 25 22 22 23 24 23 22 20 13 15 15 18 13 12 11 11
5 5 3 2 0 2 2 2 3 8 7 18 15 8 3 9 8 13 18 24 25 25 26 27 27 25 25 26 25 26 23 24 23 22 22 20 18 8 9 11 14 14 8 14
6 5 2 4 1 1 6 5 4 5 3 7 7 5 11 8 14 16 22 25 24 27 27 29 29 27 26 27 26 27 27 25 23 22 20 20 17 13 8 11 13 12 16 13
3 5 3 6 0 6 3 5 3 3 5 9 11 19 8 14 16 25 29 27 27 28 30 29 31 29 28 26 26 26 27 26 25 21 19 18 18 18 11 8 11 12 15 17
5 4 4 1 10 7 5 5 2 1 4 5 9 9 7 14 12 28 27 27 28 30 30 29 29 28 27 26 24 25 25 27 24 21 20 20 18 17 14 12 10 8 13 16
5 4 5 4 8 8 8 8 7 4 6 9 8 16 12 4 22 23 25 26 28 31 30 30 28 26 25 27 27 27 26 26 26 25 26 23 20 17 16 14 13 8 11 14
8 4 2 3 2 3 7 8 6 6 5 15 7 9 9 21 24 24 26 28 27 31 32 31 27 27 26 25 24 25 25 24 23 24 25 25 21 18 16 16 14 11 10 14
4 5 10 11 8 3 6 11 13 14 8 9 19 26 29 22 24 26 28 28 30 29 29 30 28 27 25 24 24 24 25 24 24 23 24 23 23 21 20 19 14 11 10 12
5 7 8 13 15 12 16 19 17 21 20 14 17 20 24 22 22 26 27 28 28 28 33 32 32 29 27 25 24 24 24 23 24 24 23 23 23 21 24 22 15 12 11 10
6 3 1 5 13 14 18 18 20 17 19 23 23 29 19 20 19 23 27 28 26 28 32 34 33 32 29 28 26 26 25 25 22 24 23 22 22 22 22 22 20 15 13 11
9 5 3 7 2 5 13 22 21 11 10 15 16 19 17 22 20 20 27 24 26 28 29 32 34 30 29 27 27 26 27 25 25 26 19 21 21 22 20 20 20 15 12 11
10 7 3 4 0 9 3 7 1 12 12 14 16 17 15 21 22 20 18 21 25 27 29 29 28 30 29 27 26 25 25 25 24 26 18 19 20 21 19 19 19 15 12 11
6 6 4 5 5 10 9 6 6 5 8 14 11 14 18 17 22 19 17 18 22 27 25 24 26 28 28 26 26 26 25 24 23 24 22 19 18 19 19 18 18 14 12 12
10 10 7 3 5 7 1 7 6 1 9 12 8 13 15 15 16 18 25 25 27 28 25 26 29 28 26 25 24 25 25 25 23 24 25 24 18 18 19 17 16 15 12 14
7 6 15 10 7 9 12 9 4 2 0 7 7 9 9 9 9 20 21 25 23 22 28 29 26 25 26 24 24 25 25 24 24 25 24 23 22 16 16 17 14 13 13 12
10 10 7 9 7 14 11 8 9 2 7 8 6 6 9 12 17 18 18 21 24 26 29 27 24 27 26 24 22 25 25 25 24 24 24 22 21 16 12 14 13 13 12 12
9 9 9 13 10 4 14 6 8 4 4 3 3 5 7 13 14 15 18 21 22 25 23 22 23 28 25 24 23 25 26 26 26 25 22 20 19 17 13 12 13 8 10 8
10 6 5 6 11 15 10 13 3 5 5 2 2 4 5 12 14 16 16 18 20 21 22 21 24 26 28 26 26 23 25 26 25 25 23 18 15 14 12 10 8 7 7 6
4 10 10 9 14 8 13 13 10 8 5 3 2 3 6 8 11 13 16 18 18 20 21 20 21 22 27 27 28 25 26 26 24 22 21 18 14 11 11 10 8 8 9 9
7 9 8 7 10 9 6 8 10 10 8 5 3 3 5 6 10 13 14 15 17 18 19 20 22 23 26 27 26 25 26 26 25 23 18 17 17 7 8 9 8 17 18 17
Wind_Direction
32 322 336 14 332 287 296 296 303 311 330 338 326 317 332 81 86 71 52 29 13 4 7 358 357 352 347 354 354 346 346 342 339 334 332 321 293 255 231 225 222 225 203 196
308 287 37 304 296 304 308 305 308 306 322 333 318 322 74 109 79 57 46 17 12 4 355 352 352 346 346 345 350 346 342 339 340 339 324 324 313 295 245 225 221 210 206 194
257 316 357 324 303 320 310 309 318 305 318 293 331 298 114 126 76 44 40 15 10 6 353 345 347 344 339 339 342 338 333 330 332 335 336 335 326 313 290 227 215 214 204 194
268 346 300 297 285 322 299 355 310 312 320 313 342 286 325 181 53 27 18 8 2 356 351 347 344 345 341 331 335 328 328 324 324 328 327 338 319 310 307 290 224 213 207 205
272 235 277 286 350 324 334 330 307 301 293 312 289 241 193 231 2 5 4 357 353 351 346 341 340 336 327 327 330 320 323 315 319 314 312 315 310 307 303 299 282 207 204 205
307 352 291 351 91 58 320 328 306 292 281 247 129 347 247 347 33 1 356 354 349 344 336 333 331 329 324 316 323 312 310 311 309 310 304 307 307 314 311 301 293 262 200 196
304 124 97 4 194 189 359 351 317 305 269 282 169 324 312 101 46 14 358 352 338 333 331 324 325 323 318 318 317 310 302 303 301 306 300 300 306 310 312 306 300 274 252 187
238 211 212 38 252 345 110 169 239 278 302 296 294 220 166 141 22 10 357 342 329 329 326 320 321 318 315 315 310 308 300 298 293 298 296 291 296 296 305 318 319 299 281 226
182 239 135 35 277 293 145 217 35 271 201 277 253 235 189 41 352 349 337 334 330 330 324 322 319 314 313 310 307 307 302 298 290 291 292 284 282 281 284 301 297 314 301 303
162 261 193 137 7 52 274 103 163 180 277 287 282 297 271 355 342 336 337 334 333 328 324 323 318 314 311 311 308 306 301 299 293 289 284 280 276 280 275 281 286 300 312 292
160 242 147 181 200 205 160 176 143 9 254 265 296 287 32 342 341 335 330 331 330 322 321 315 313 315 319 316 325 334 329 323 313 292 281 275 272 269 278 280 271 281 307 318
172 178 218 264 314 257 233 195 179 194 218 237 290 277 302 279 340 327 325 326 324 317 319 317 319 317 326 323 315 316 312 309 305 303 313 285 270 263 263 270 276 283 286 292
177 198 225 186 166 168 203 188 190 226 248 236 244 257 204 336 322 326 325 326 322 319 322 319 322 325 322 319 314 311 310 306 308 310 307 302 314 297 284 277 274 270 272 285
181 204 233 258 308 130 200 202 212 204 221 260 232 273 291 313 322 325 325 327 321 320 317 323 322 321 319 318 314 312 310 308 305 303 303 300 302 297 285 280 271 273 279 291
217 234 242 259 273 263 262 259 243 231 236 246 272 279 286 308 327 322 320 322 318 324 325 326 323 322 320 316 314 311 305 303 300 297 294 293 292 298 293 297 288 274 272 285
194 228 274 268 262 259 258 258 251 237 241 248 262 273 286 322 316 322 321 324 327 326 324 323 320 320 320 318 315 313 309 304 304 295 286 286 287 286 288 289 277 273 270 280
176 183 169 276 84 316 269 241 239 223 214 235 250 263 321 309 318 324 317 328 330 323 321 320 319 318 317 318 313 312 309 313 303 290 283 282 280 279 280 276 280 259 261 273
167 157 167 273 153 247 11 145 89 243 239 245 264 293 302 316 314 314 313 332 326 325 323 320 317 315 318 315 316 312 311 306 307 301 288 281 277 274 275 276 274 262 269 260
153 151 213 238 213 322 279 225 182 209 254 247 266 297 313 318 309 307 342 337 324 320 316 315 314 313 317 317 317 313 309 311 309 305 302 287 282 273 273 265 275 277 270 265
192 203 206 170 233 255 336 157 136 241 278 142 313 309 319 331 318 317 336 332 327 322 318 321 317 320 318 321 318 313 314 312 309 307 310 302 277 271 267 267 265 260 266 261
167 196 220 216 244 275 255 180 141 238 10 285 323 303 315 305 299 307 315 317 319 316 317 319 322 318 321 323 320 319 316 312 312 304 303 303 302 261 258 262 261 265 263 257
167 184 200 205 211 262 179 123 203 261 307 304 306 307 298 294 306 310 315 318 318 321 323 326 326 321 321 324 327 323 318 316 311 310 304 300 295 286 258 257 261 250 247 257
200 212 176 198 205 238 187 212 213 194 253 237 268 312 311 304 306 312 317 320 321 320 323 324 327 320 323 327 333 323 323 322 318 311 301 294 288 286 267 255 253 256 254 248
230 178 225 172 229 235 210 222 250 201 209 172 241 293 305 296 310 316 318 321 322 324 325 327 327 325 322 329 332 327 326 326 318 311 307 300 288 287 285 244 234 239 253 252
180 154 220 246 258 246 249 248 248 181 166 187 227 299 297 301 307 318 317 318 323 322 324 330 328 326 322 328 328 330 333 329 325 320 319 318 308 274 272 266 243 229 235 230
177 197 197 228 228 230 238 171 162 178 198 196 228 280 272 300 313 321 312 318 324 326 330 331 327 329 325 330 328 334 336 333 332 334 334 328 323 274 270 272 246 236 237 241